| time (UTC) | temp F | wind direction | speed knots | gust knots | rain 1hr in | rain 24hr in | rain mn in | humidity % | barometer mb |
| 20260505014533 | 74 | 242 | 3.5 | 8.7 | 0.00 | 0.00 | 0.00 | 41 | 1011.2 |
| 20260505013031 | 75 | 263 | 3.5 | 9.6 | 0.00 | 0.00 | 0.00 | 39 | 1011.1 |
| 20260505011531 | 77 | 261 | 4.3 | 10.4 | 0.00 | 0.00 | 0.00 | 36 | 1011.0 |
| 20260505010106 | 78 | 256 | 4.3 | 12.2 | 0.00 | 0.00 | 0.00 | 36 | 1011.1 |
| 20260505004529 | 79 | 264 | 4.3 | 12.2 | 0.00 | 0.00 | 0.00 | 35 | 1011.0 |
| 20260505001533 | 80 | 262 | 5.2 | 12.2 | 0.00 | 0.00 | 0.00 | 35 | 1010.8 |
| 20260505000029 | 81 | 265 | 6.1 | 12.2 | 0.00 | 0.00 | 0.00 | 35 | 1010.9 |
| 20260504234531 | 81 | 261 | 5.2 | 13.9 | 0.00 | 0.00 | 0.00 | 35 | 1010.7 |
| 20260504233030 | 81 | 269 | 6.1 | 13.9 | 0.00 | 0.00 | 0.00 | 34 | 1010.8 |
| 20260504231607 | 81 | 266 | 7.8 | 14.8 | 0.00 | 0.00 | 0.00 | 34 | 1010.8 |
| 20260504230031 | 82 | 264 | 7.0 | 13.9 | 0.00 | 0.00 | 0.00 | 34 | 1010.9 |
| 20260504223031 | 81 | 261 | 7.0 | 15.6 | 0.00 | 0.00 | 0.00 | 34 | 1011.1 |
| 20260504221531 | 81 | 268 | 7.0 | 15.6 | 0.00 | 0.00 | 0.00 | 34 | 1011.0 |
| 20260504220104 | 81 | 267 | 6.1 | 13.9 | 0.00 | 0.00 | 0.00 | 34 | 1011.2 |
| 20260504214530 | 80 | 266 | 7.8 | 16.5 | 0.00 | 0.00 | 0.00 | 35 | 1011.2 |
| 20260504213116 | 80 | 259 | 7.0 | 15.6 | 0.00 | 0.00 | 0.00 | 35 | 1011.2 |
| 20260504211533 | 80 | 270 | 7.0 | 15.6 | 0.00 | 0.00 | 0.00 | 35 | 1011.3 |
| 20260504210031 | 80 | 255 | 5.2 | 13.9 | 0.00 | 0.00 | 0.00 | 35 | 1011.3 |
| 20260504204531 | 81 | 265 | 5.2 | 13.9 | 0.00 | 0.00 | 0.00 | 35 | 1011.4 |
| 20260504203105 | 81 | 259 | 4.3 | 14.8 | 0.00 | 0.00 | 0.00 | 34 | 1011.6 |
| 20260504201530 | 80 | 318 | 2.6 | 9.6 | 0.00 | 0.00 | 0.00 | 36 | 1011.7 |
| 20260504200032 | 81 | 12 | 2.6 | 10.4 | 0.00 | 0.00 | 0.00 | 39 | 1011.7 |
| 20260504194530 | 81 | 32 | 3.5 | 7.0 | 0.00 | 0.00 | 0.00 | 40 | 1011.7 |
| 20260504193030 | 80 | 43 | 3.5 | 8.7 | 0.00 | 0.00 | 0.00 | 40 | 1011.7 |
| 20260504191608 | 80 | 54 | 4.3 | 7.8 | 0.00 | 0.00 | 0.00 | 41 | 1011.8 |
| 20260504184531 | 79 | 63 | 4.3 | 9.6 | 0.00 | 0.00 | 0.00 | 42 | 1011.9 |
| 20260504183030 | 80 | 60 | 5.2 | 9.6 | 0.00 | 0.00 | 0.00 | 41 | 1012.0 |
| 20260504180031 | 80 | 33 | 1.7 | 5.2 | 0.00 | 0.00 | 0.00 | 39 | 1012.0 |
| 20260504173030 | 80 | 33 | 2.6 | 6.1 | 0.00 | 0.00 | 0.00 | 38 | 1012.1 |
| 20260504171646 | 79 | 6 | 1.7 | 4.3 | 0.00 | 0.00 | 0.00 | 38 | 1012.1 |
| 20260504081530 | 47 | 175 | 0.0 | 2.6 | 0.00 | 0.00 | 0.00 | 82 | 1012.1 |
| 20260504080144 | 48 | 188 | 0.0 | 1.7 | 0.00 | 0.00 | 0.00 | 80 | 1012.2 |
| 20260504044531 | 59 | 198 | 1.7 | 3.5 | 0.00 | 0.00 | 0.00 | 58 | 1011.7 |
| 20260504043032 | 60 | 154 | 2.6 | 4.3 | 0.00 | 0.00 | 0.00 | 58 | 1011.6 |
| 20260504041531 | 61 | 135 | 2.6 | 3.5 | 0.00 | 0.00 | 0.00 | 58 | 1011.4 |
| 20260504040039 | 61 | 105 | 2.6 | 5.2 | 0.00 | 0.00 | 0.00 | 57 | 1011.2 |
| 20260504034531 | 63 | 209 | 0.0 | 2.6 | 0.00 | 0.00 | 0.00 | 53 | 1011.0 |
| 20260504033103 | 65 | 190 | 0.9 | 3.5 | 0.00 | 0.00 | 0.00 | 50 | 1010.8 |
| 20260504031532 | 68 | 157 | 2.6 | 5.2 | 0.00 | 0.00 | 0.00 | 48 | 1010.6 |
| 20260504030033 | 71 | 211 | 0.9 | 3.5 | 0.00 | 0.00 | 0.00 | 46 | 1010.5 |
| 20260504024530 | 74 | 247 | 1.7 | 3.5 | 0.00 | 0.00 | 0.00 | 40 | 1010.4 |
| 20260504023147 | 78 | 278 | 0.9 | 3.5 | 0.00 | 0.00 | 0.00 | 35 | 1010.4 |
| 20260504021647 | 80 | 337 | 0.0 | 1.7 | 0.00 | 0.00 | 0.00 | 31 | 1010.5 |
| 20260504020107 | 81 | 349 | 0.9 | 3.5 | 0.00 | 0.00 | 0.00 | 28 | 1010.7 |